[[{"header":{"parameterUnit":"m.s-1","parameterCategory":1,"la1":30.2991,"la2":30.254,"lo1":-89.0895,"lo2":-89.0444,"dy":0.0017,"dx":0.0017,"nx":28,"ny":28,"refTime":"2024-12-20T09:00:00:Z","depth":0,"parameterNumber":2,"parameterNumberName":"U-component_of_WINDS"},"data":[0,0,0,0,0,0,0,0,0,0,0,0,0,0,0,0,0,0,0,0,0,0,0,0,0,0,0,0,0,0,0,0,0,0,0,0,0,0,0,0,0,0,0,0,0,0,0,0,0,0,0,0,0,0,0,0,0,0,1.1886,1.1886,0,1.1863,1.1863,1.1863,1.1831,1.183,1.183,1.1829,1.1805,1.1805,1.1805,0,0,0,0,0,0,0,0,0,0,0,0,0,1.1902,1.1902,1.1886,1.1886,1.1885,1.1863,1.1863,1.1863,1.1831,1.183,1.183,1.1829,1.1805,1.1805,1.1805,0,0,0,0,0,0,0,0,0,0,0,0,0,1.1889,1.1902,1.1886,1.1867,1.1865,1.1863,1.1863,1.1863,1.1831,1.183,1.1829,1.1829,1.1805,1.1805,1.1805,1.182,0,0,1.1804,1.1804,0,0,0,0,0,0,0,0,1.189,1.1888,1.187,1.1868,1.1866,1.1849,1.186,1.1848,1.1831,1.1844,1.1829,1.1828,1.182,1.1819,1.1816,1.1819,1.1818,1.1804,1.1804,1.1804,1.1804,0,0,0,0,0,0,0,1.1891,1.1889,1.1877,1.187,1.1867,1.186,1.1857,1.1858,1.1837,1.1843,1.184,1.1838,1.1819,1.1817,1.1816,1.1817,1.1804,1.1804,1.1804,1.1804,1.1833,1.1834,0,0,0,0,0,0,1.1894,1.189,1.1878,1.1876,1.1876,1.186,1.1857,1.1855,1.1837,1.1833,1.1839,1.1837,1.1817,1.1816,1.1815,1.1831,1.1804,1.1804,1.1804,1.1832,1.1833,1.1834,0,0,0,0,0,0,1.1895,1.1894,1.1879,1.1883,1.188,1.1861,1.1859,1.1855,1.1853,1.1834,1.183,1.184,1.1817,1.1815,1.1819,1.183,1.1804,1.1804,1.1831,1.1832,1.1834,1.1865,0,0,0,0,0,0,1.1896,1.1894,1.1899,1.1883,1.188,1.1883,1.186,1.1855,1.1853,1.185,1.1834,1.1831,1.1816,1.182,1.1819,1.1829,1.1803,1.183,1.1832,1.1833,1.1863,1.1867,1.1871,0,0,0,0,0,1.1896,1.1908,1.19,1.1898,1.1886,1.1884,1.1882,1.1865,1.1854,1.1859,1.1847,1.1831,1.183,1.182,1.1819,1.183,1.1829,1.1831,1.1833,1.1861,1.1867,1.1871,0,0,0,0,0,0,1.1925,1.1906,1.1896,1.1903,1.1896,1.1879,1.1884,1.1871,1.1867,1.1864,1.1843,1.184,1.1847,1.1839,1.1829,1.1844,1.1827,1.1829,1.1849,1.1854,1.1858,1.1859,1.1803,0,0,0,0,0,1.1933,1.1933,1.1916,1.1924,1.1921,1.1904,1.1902,1.189,1.1881,1.1878,1.1866,1.1858,1.1856,1.1855,1.1852,1.1863,1.1859,1.187,1.1874,1.1877,1.1878,1.1885,1.1889,1.1841,1.1841,1.184,0,0,1.1948,1.1937,1.1938,1.193,1.1922,1.1923,1.1901,1.1902,1.1903,1.1878,1.1881,1.1873,1.1863,1.1871,1.1874,1.1864,1.1892,1.188,1.1883,1.1882,1.1887,1.1892,1.1896,1.1842,1.1842,1.1841,0,0,1.1975,1.1967,1.1974,1.1967,1.1957,1.1946,1.1948,1.1933,1.1927,1.1931,1.1912,1.1913,1.1909,1.1903,1.1899,1.1928,1.1913,1.1928,1.1948,1.1954,1.1958,1.1961,1.1971,1.1975,1.1929,1.193,1.193,0,1.1995,1.1995,1.1978,1.1981,1.1978,1.1957,1.1964,1.1959,1.1948,1.1946,1.1937,1.1933,1.1925,1.1931,1.1938,1.1936,1.1938,1.1928,1.1959,1.1962,1.1965,1.1974,1.1978,1.1931,1.1931,1.1931,1.1931,0,1.202,1.202,1.2027,1.2018,1.2016,1.202,1.2005,1.2005,1.1995,1.1985,1.1989,1.1979,1.1974,1.1975,1.1964,1.1981,1.1975,1.1963,1.1945,1.1972,1.198,1.1983,1.1934,1.1933,1.1933,1.1932,0,0,1.2062,1.2046,1.2048,1.2044,1.2033,1.2033,1.2038,1.2034,1.2034,1.2029,1.2032,1.2031,1.202,1.2016,1.2004,1.201,1.2034,1.1997,1.1996,1.2003,1.2052,1.2061,1.2065,1.2025,1.2025,1.2026,1.2053,0,1.2086,1.2092,1.2079,1.2089,1.209,1.2071,1.2075,1.2069,1.2061,1.2061,1.2052,1.2051,1.2037,1.2034,1.204,1.203,1.2043,1.2028,1.2027,1.2027,1.2029,1.2069,1.2078,1.2103,1.2056,1.2056,1.2057,0,1.2114,1.2111,1.2121,1.2111,1.2111,1.2114,1.211,1.2111,1.2104,1.2098,1.2095,1.2082,1.2086,1.2071,1.2077,1.2067,1.2066,1.2062,1.2063,1.206,1.2042,1.2067,1.2111,1.2115,1.2062,1.2061,1.2061,0,1.2143,1.2142,1.2148,1.2145,1.2133,1.2137,1.2132,1.2124,1.2123,1.212,1.212,1.2117,1.2115,1.2114,1.2101,1.2091,1.2109,1.2092,1.2104,1.2104,1.2107,1.2106,1.215,1.2109,1.2109,1.2109,1.2109,0,1.2171,1.2177,1.2161,1.2164,1.2172,1.2157,1.2165,1.2159,1.2153,1.2155,1.214,1.2143,1.2126,1.2127,1.2118,1.2124,1.2124,1.2119,1.2116,1.212,1.212,1.2118,1.2115,1.211,1.211,1.2109,1.2109,0,1.2203,1.2192,1.2198,1.2187,1.2185,1.2191,1.2182,1.2185,1.2177,1.218,1.218,1.2168,1.2169,1.2156,1.2155,1.2148,1.2159,1.2154,1.2161,1.2159,1.2171,1.217,1.2213,1.2218,1.2175,1.2176,1.2176,0,1.222,1.2225,1.2216,1.2217,1.2213,1.2215,1.2214,1.2201,1.2201,1.2195,1.2199,1.2199,1.2198,1.2201,1.2191,1.219,1.2184,1.22,1.2184,1.2187,1.2183,1.2183,1.2183,1.2202,1.2203,1.2203,1.2204,0,1.2252,1.2248,1.2247,1.2246,1.2246,1.2244,1.2241,1.2243,1.2229,1.223,1.2231,1.223,1.223,1.223,1.2227,1.2223,1.2211,1.2209,1.2212,1.2214,1.2218,1.2216,1.2169,1.2208,1.2207,1.2207,1.2207,1.2206,1.2277,1.2281,1.2276,1.2277,1.2274,1.2272,1.2275,1.2268,1.2269,1.2267,1.226,1.2263,1.2258,1.2254,1.2251,1.2253,1.2245,1.2249,1.225,1.2251,1.2253,1.222,1.2253,1.2253,1.2252,1.2252,1.2252,0,1.2308,1.2304,1.2305,1.2302,1.2303,1.2294,1.2291,1.2292,1.2295,1.2292,1.2292,1.2294,1.2295,1.2287,1.2286,1.229,1.2285,1.229,1.2289,1.2288,1.226,1.2257,1.2295,1.2295,1.2295,1.2295,1.2295,1.2295,1.2324,1.233,1.2325,1.233,1.2327,1.2329,1.2329,1.2327,1.2325,1.2328,1.2329,1.2324,1.232,1.2319,1.232,1.2318,1.2318,1.2326,1.2321,1.2294,1.229,1.2286,1.2284,1.2326,1.2326,1.235,1.235,1.235]},{"header":{"parameterUnit":"m.s-1","parameterCategory":1,"la1":30.2991,"la2":30.254,"lo1":-89.0895,"lo2":-89.0444,"dy":0.0017,"dx":0.0017,"nx":28,"ny":28,"refTime":"2024-12-20T09:00:00:Z","depth":0,"parameterNumber":3,"parameterNumberName":"V-component_of_WINDS"},"data":[0,0,0,0,0,0,0,0,0,0,0,0,0,0,0,0,0,0,0,0,0,0,0,0,0,0,0,0,0,0,0,0,0,0,0,0,0,0,0,0,0,0,0,0,0,0,0,0,0,0,0,0,0,0,0,0,0,0,-2.873,-2.8731,0,-2.8836,-2.8837,-2.8838,-2.8792,-2.8789,-2.8787,-2.8784,-2.8892,-2.8897,-2.8902,0,0,0,0,0,0,0,0,0,0,0,0,0,-2.8487,-2.8492,-2.873,-2.8731,-2.8732,-2.8835,-2.8837,-2.8838,-2.8792,-2.8789,-2.8786,-2.8783,-2.889,-2.8897,-2.8903,0,0,0,0,0,0,0,0,0,0,0,0,0,-2.8593,-2.8494,-2.873,-2.8722,-2.8722,-2.8835,-2.8837,-2.8839,-2.8793,-2.8789,-2.8785,-2.8781,-2.8888,-2.8896,-2.8904,-2.903,0,0,-2.8928,-2.8931,0,0,0,0,0,0,0,0,-2.8587,-2.8602,-2.8722,-2.8723,-2.8723,-2.8797,-2.8791,-2.8903,-2.8794,-2.8766,-2.8784,-2.878,-2.8863,-2.8873,-2.8901,-2.9035,-2.904,-2.8929,-2.8933,-2.8937,-2.8939,0,0,0,0,0,0,0,-2.858,-2.8597,-2.8772,-2.8723,-2.8724,-2.8713,-2.8724,-2.8812,-2.8835,-2.8768,-2.8765,-2.8778,-2.8863,-2.8894,-2.8904,-2.9042,-2.8928,-2.8936,-2.894,-2.8943,-2.9286,-2.929,0,0,0,0,0,0,-2.8573,-2.8591,-2.8768,-2.8775,-2.8644,-2.8721,-2.8732,-2.8777,-2.8834,-2.8839,-2.8781,-2.8776,-2.8882,-2.8894,-2.8907,-2.906,-2.8937,-2.8944,-2.8949,-2.9281,-2.9287,-2.9291,0,0,0,0,0,0,-2.8568,-2.8589,-2.8764,-2.8682,-2.8704,-2.8729,-2.8779,-2.8781,-2.8812,-2.8844,-2.8848,-2.8809,-2.888,-2.8896,-2.9,-2.9063,-2.8948,-2.8955,-2.9276,-2.9283,-2.9289,-2.9366,0,0,0,0,0,0,-2.8561,-2.8587,-2.8636,-2.8684,-2.8708,-2.8856,-2.8783,-2.8786,-2.8826,-2.8819,-2.8871,-2.8876,-2.8878,-2.8989,-2.9008,-2.9072,-2.8961,-2.9271,-2.9279,-2.9287,-2.9358,-2.9374,-2.9388,0,0,0,0,0,-2.8552,-2.8653,-2.8638,-2.866,-2.8769,-2.8859,-2.8873,-2.8874,-2.8831,-2.888,-2.8901,-2.8874,-2.9053,-2.9,-2.9021,-2.9088,-2.9267,-2.9277,-2.9286,-2.9351,-2.9371,-2.9388,0,0,0,0,0,0,-2.8611,-2.8659,-2.8643,-2.8763,-2.8807,-2.8851,-2.8913,-2.8895,-2.8953,-2.8944,-2.8942,-2.8954,-2.9063,-2.9086,-2.9026,-2.9214,-2.9153,-2.9168,-2.9195,-2.9215,-2.9229,-2.9222,-2.8968,0,0,0,0,0,-2.8638,-2.8707,-2.8745,-2.8847,-2.887,-2.8888,-2.8927,-2.8924,-2.897,-2.8989,-2.9017,-2.9063,-2.9129,-2.9173,-2.9236,-2.9361,-2.9372,-2.9418,-2.9433,-2.9445,-2.9458,-2.9526,-2.9548,-2.9323,-2.9323,-2.9323,0,0,-2.8694,-2.8729,-2.8773,-2.886,-2.8894,-2.8966,-2.8904,-2.8982,-2.9036,-2.9,-2.9101,-2.9123,-2.9174,-2.929,-2.9342,-2.9312,-2.9522,-2.9457,-2.9467,-2.9473,-2.9539,-2.956,-2.9579,-2.933,-2.9329,-2.9328,0,0,-2.8834,-2.8867,-2.8955,-2.8991,-2.9044,-2.9055,-2.9076,-2.9124,-2.9137,-2.9238,-2.9213,-2.9276,-2.9391,-2.9428,-2.9462,-2.9617,-2.9595,-2.9637,-2.9717,-2.9784,-2.9801,-2.9817,-2.9873,-2.9893,-2.965,-2.965,-2.965,0,-2.8897,-2.9004,-2.9003,-2.9084,-2.9123,-2.9094,-2.9184,-2.9219,-2.929,-2.9317,-2.9283,-2.9427,-2.9459,-2.9583,-2.9621,-2.9649,-2.9674,-2.9632,-2.9799,-2.9815,-2.9829,-2.9882,-2.9903,-2.9655,-2.9654,-2.9654,-2.9653,0,-2.908,-2.9155,-2.922,-2.9289,-2.9336,-2.942,-2.9432,-2.9479,-2.9472,-2.9487,-2.959,-2.9628,-2.9698,-2.9727,-2.9721,-2.9851,-2.9831,-2.9798,-2.9737,-2.9856,-2.9906,-2.9926,-2.9662,-2.966,-2.9658,-2.9657,0,0,-2.9259,-2.9327,-2.9351,-2.9383,-2.9439,-2.9497,-2.9581,-2.965,-2.9691,-2.974,-2.9811,-2.9909,-2.9879,-2.9917,-2.9915,-2.9973,-3.0094,-2.9933,-2.9934,-2.9962,-3.0241,-3.0266,-3.029,-3.008,-3.0084,-3.0087,-3.0237,0,-2.9403,-2.955,-2.9552,-2.9687,-2.9757,-2.9731,-2.9804,-2.9847,-2.9863,-2.9924,-2.9942,-3.0012,-2.9966,-2.9989,-3.0046,-3.0068,-3.015,-3.0057,-3.0146,-3.0149,-3.0135,-3.0316,-3.0343,-3.0483,-3.0257,-3.026,-3.0262,0,-2.9591,-2.9647,-2.979,-2.9837,-2.9866,-2.9932,-2.9996,-3.0055,-3.0102,-3.011,-3.0154,-3.0143,-3.0228,-3.0164,-3.0282,-3.0218,-3.0255,-3.0271,-3.0276,-3.0285,-3.0213,-3.0331,-3.0528,-3.0549,-3.0293,-3.029,-3.0288,0,-2.9709,-2.982,-2.992,-2.9948,-3.0005,-3.0052,-3.0078,-3.0122,-3.0163,-3.0219,-3.0246,-3.0311,-3.0347,-3.0398,-3.0404,-3.0357,-3.0524,-3.046,-3.0533,-3.0533,-3.057,-3.0567,-3.0776,-3.0592,-3.0592,-3.0591,-3.0591,0,-2.987,-2.9958,-2.9974,-3.0035,-3.0134,-3.0135,-3.0232,-3.0254,-3.0294,-3.0359,-3.034,-3.0402,-3.0407,-3.0471,-3.0476,-3.0574,-3.059,-3.0599,-3.0599,-3.0601,-3.06,-3.0625,-3.0616,-3.0597,-3.0596,-3.0594,-3.0593,0,-3.0018,-3.0032,-3.0139,-3.0185,-3.0198,-3.0269,-3.0308,-3.0367,-3.0381,-3.0464,-3.0484,-3.0507,-3.0581,-3.0592,-3.0679,-3.0683,-3.08,-3.079,-3.0784,-3.0783,-3.0856,-3.085,-3.1089,-3.1121,-3.0915,-3.0917,-3.0919,0,-3.012,-3.0188,-3.0241,-3.0284,-3.0312,-3.0381,-3.0424,-3.0427,-3.0473,-3.0533,-3.0585,-3.0657,-3.0715,-3.0834,-3.0859,-3.0925,-3.0917,-3.0997,-3.0927,-3.0927,-3.092,-3.0916,-3.0923,-3.101,-3.1012,-3.1014,-3.1016,0,-3.0301,-3.0304,-3.0367,-3.0432,-3.0484,-3.0536,-3.0584,-3.062,-3.063,-3.0682,-3.0758,-3.0803,-3.0892,-3.0964,-3.103,-3.1056,-3.1039,-3.1037,-3.1058,-3.1061,-3.1055,-3.106,-3.0822,-3.1032,-3.103,-3.1029,-3.1028,-3.1028,-3.043,-3.0489,-3.0536,-3.0606,-3.0643,-3.0689,-3.0747,-3.0769,-3.0833,-3.0906,-3.0904,-3.0987,-3.1034,-3.1121,-3.1152,-3.1217,-3.1191,-3.1221,-3.1229,-3.1236,-3.1244,-3.1044,-3.1229,-3.1229,-3.1228,-3.1228,-3.1227,0,-3.061,-3.0639,-3.0704,-3.0773,-3.0828,-3.0806,-3.0859,-3.0907,-3.0981,-3.1026,-3.1084,-3.1171,-3.1241,-3.1272,-3.134,-3.1387,-3.1381,-3.1405,-3.1402,-3.1409,-3.1263,-3.1238,-3.1409,-3.1409,-3.1409,-3.1409,-3.1409,-3.1409,-3.071,-3.081,-3.0819,-3.0937,-3.0965,-3.1047,-3.1079,-3.1122,-3.1158,-3.1257,-3.1315,-3.1334,-3.1373,-3.1445,-3.1509,-3.1516,-3.1542,-3.1571,-3.1575,-3.1437,-3.1419,-3.1402,-3.1379,-3.1577,-3.1577,-3.1716,-3.1717,-3.1718]}]]